• In Deutschland
  • Länderverzeichnis
  • Für 7 Tage
  • Wassertemperatur
  • Satellitenkarten
  • Wetterkarte
  • Widgets
  • user-avatar
    Anmelden

    Stündliche Wetter Sewan

    Heute, 23 September, Samstag

    Zeit Temperatur Niederschläge Wind Luftdruck Luftfeuchtigkeit
    00:00 +17°C° 0,2 mm 2 m/S 642 mmHg 70%
    01:00 +17°C° 0,1 mm 2 m/S 642 mmHg 70%
    02:00 +16°C° 0,1 mm 2 m/S 642 mmHg 71%
    03:00 +17°C° 0 mm 3 m/S 642 mmHg 67%
    04:00 +17°C° 0 mm 2 m/S 642 mmHg 68%
    05:00 +16°C° 0 mm 2 m/S 642 mmHg 69%
    06:00 +16°C° 0 mm 2 m/S 642 mmHg 70%
    07:00 +18°C° 0 mm 2 m/S 643 mmHg 61%
    08:00 +20°C° 0 mm 2 m/S 643 mmHg 51%
    09:00 +24°C° 0 mm 2 m/S 644 mmHg 41%
    10:00 +25°C° 0,1 mm 2 m/S 644 mmHg 37%
    11:00 +26°C° 0,1 mm 2 m/S 644 mmHg 33%
    12:00 +27°C° 0,1 mm 2 m/S 644 mmHg 29%
    13:00 +27°C° 0,1 mm 2 m/S 644 mmHg 29%
    14:00 +27°C° 0,1 mm 2 m/S 644 mmHg 29%
    15:00 +28°C° 0 mm 2 m/S 644 mmHg 28%
    16:00 +26°C° 0,4 mm 2 m/S 643 mmHg 35%
    17:00 +23°C° 0,4 mm 2 m/S 643 mmHg 43%
    18:00 +21°C° 0,4 mm 1 m/S 642 mmHg 51%
    19:00 +19°C° 0,5 mm 2 m/S 643 mmHg 57%
    20:00 +19°C° 0,5 mm 2 m/S 643 mmHg 62%
    21:00 +18°C° 0,5 mm 2 m/S 643 mmHg 68%
    22:00 +17°C° 0 mm 2 m/S 643 mmHg 70%
    23:00 +17°C° 0 mm 2 m/S 643 mmHg 73%

    Morgen, 24 September, Sonntag

    Zeit Temperatur Niederschläge Wind Luftdruck Luftfeuchtigkeit
    00:00 +16°C° 0 mm 2 m/S 643 mmHg 75%
    01:00 +16°C° 0,1 mm 2 m/S 643 mmHg 77%
    02:00 +16°C° 0,1 mm 2 m/S 644 mmHg 78%
    03:00 +15°C° 0,1 mm 2 m/S 644 mmHg 79%
    04:00 +15°C° 0 mm 2 m/S 644 mmHg 80%
    05:00 +14°C° 0 mm 2 m/S 644 mmHg 81%
    06:00 +14°C° 0 mm 2 m/S 644 mmHg 82%
    07:00 +16°C° 0 mm 2 m/S 644 mmHg 73%
    08:00 +18°C° 0 mm 2 m/S 645 mmHg 64%
    09:00 +20°C° 0 mm 2 m/S 646 mmHg 54%
    10:00 +21°C° 0,1 mm 2 m/S 646 mmHg 49%
    11:00 +24°C° 0,1 mm 2 m/S 646 mmHg 43%
    12:00 +25°C° 0,1 mm 2 m/S 646 mmHg 38%
    13:00 +25°C° 0,2 mm 2 m/S 646 mmHg 37%
    14:00 +25°C° 0,2 mm 2 m/S 646 mmHg 36%
    15:00 +26°C° 0,2 mm 2 m/S 645 mmHg 34%
    16:00 +24°C° 0,4 mm 2 m/S 645 mmHg 41%
    17:00 +21°C° 0,4 mm 2 m/S 644 mmHg 48%
    18:00 +19°C° 0,4 mm 2 m/S 644 mmHg 55%
    19:00 +18°C° 0,1 mm 2 m/S 644 mmHg 60%
    20:00 +17°C° 0,1 mm 2 m/S 644 mmHg 65%
    21:00 +16°C° 0,1 mm 2 m/S 645 mmHg 70%
    22:00 +16°C° 0 mm 2 m/S 644 mmHg 71%
    23:00 +15°C° 0 mm 2 m/S 644 mmHg 72%

    übermorgen, 25 September, Montag

    Zeit Temperatur Niederschläge Wind Luftdruck Luftfeuchtigkeit
    00:00 +15°C° 0 mm 2 m/S 644 mmHg 73%
    01:00 +15°C° 0 mm 2 m/S 644 mmHg 75%
    02:00 +14°C° 0 mm 2 m/S 644 mmHg 76%
    03:00 +14°C° 0 mm 2 m/S 644 mmHg 78%
    04:00 +13°C° 0,1 mm 2 m/S 644 mmHg 79%
    05:00 +13°C° 0,1 mm 2 m/S 644 mmHg 80%
    06:00 +13°C° 0,1 mm 2 m/S 644 mmHg 81%
    07:00 +15°C° 0 mm 1 m/S 644 mmHg 72%
    08:00 +18°C° 0 mm 1 m/S 645 mmHg 62%
    09:00 +20°C° 0 mm 1 m/S 646 mmHg 53%
    10:00 +21°C° 0,2 mm 1 m/S 646 mmHg 48%
    11:00 +23°C° 0,2 mm 2 m/S 646 mmHg 43%
    12:00 +24°C° 0,2 mm 2 m/S 646 mmHg 38%
    13:00 +24°C° 0,2 mm 2 m/S 646 mmHg 37%
    14:00 +24°C° 0,2 mm 2 m/S 645 mmHg 35%
    15:00 +25°C° 0,2 mm 2 m/S 645 mmHg 34%
    16:00 +23°C° 0,1 mm 2 m/S 644 mmHg 41%
    17:00 +20°C° 0,1 mm 1 m/S 644 mmHg 47%
    18:00 +18°C° 0,1 mm 1 m/S 643 mmHg 53%
    19:00 +18°C° 0,1 mm 1 m/S 644 mmHg 59%
    20:00 +16°C° 0,1 mm 2 m/S 644 mmHg 64%
    21:00 +16°C° 0,1 mm 2 m/S 644 mmHg 70%
    22:00 +15°C° 0 mm 2 m/S 644 mmHg 71%
    23:00 +15°C° 0 mm 2 m/S 644 mmHg 73%

    26 September, Dienstag

    Zeit Temperatur Niederschläge Wind Luftdruck Luftfeuchtigkeit
    00:00 +14°C° 0 mm 2 m/S 644 mmHg 74%
    01:00 +14°C° 0 mm 2 m/S 644 mmHg 75%
    02:00 +14°C° 0 mm 2 m/S 643 mmHg 75%
    03:00 +13°C° 0 mm 2 m/S 643 mmHg 76%
    04:00 +13°C° 0 mm 1 m/S 643 mmHg 77%
    05:00 +12°C° 0 mm 1 m/S 643 mmHg 77%
    06:00 +12°C° 0 mm 1 m/S 643 mmHg 77%
    07:00 +14°C° 0 mm 1 m/S 643 mmHg 67%
    08:00 +18°C° 0 mm 1 m/S 644 mmHg 56%
    09:00 +20°C° 0 mm 1 m/S 645 mmHg 45%
    10:00 +20°C° 0 mm 2 m/S 645 mmHg 40%
    11:00 +23°C° 0 mm 2 m/S 645 mmHg 35%
    12:00 +24°C° 0 mm 2 m/S 645 mmHg 30%
    13:00 +24°C° 0 mm 2 m/S 645 mmHg 29%
    14:00 +24°C° 0 mm 2 m/S 644 mmHg 28%
    15:00 +25°C° 0 mm 2 m/S 644 mmHg 28%
    16:00 +23°C° 0 mm 2 m/S 644 mmHg 34%
    17:00 +20°C° 0 mm 2 m/S 643 mmHg 40%
    18:00 +19°C° 0 mm 1 m/S 643 mmHg 47%
    19:00 +17°C° 0,2 mm 2 m/S 643 mmHg 53%
    20:00 +17°C° 0,2 mm 2 m/S 643 mmHg 59%
    21:00 +16°C° 0,2 mm 2 m/S 643 mmHg 66%
    22:00 +16°C° 0 mm 2 m/S 643 mmHg 68%
    23:00 +16°C° 0 mm 2 m/S 643 mmHg 70%

    27 September, Mittwoch

    Zeit Temperatur Niederschläge Wind Luftdruck Luftfeuchtigkeit
    00:00 +15°C° 0 mm 2 m/S 643 mmHg 72%
    01:00 +15°C° 0,1 mm 2 m/S 643 mmHg 74%
    02:00 +15°C° 0,1 mm 2 m/S 643 mmHg 75%
    03:00 +14°C° 0,1 mm 2 m/S 643 mmHg 77%
    04:00 +14°C° 0,1 mm 2 m/S 643 mmHg 77%
    05:00 +13°C° 0,1 mm 2 m/S 642 mmHg 78%
    06:00 +13°C° 0,1 mm 1 m/S 642 mmHg 79%
    07:00 +15°C° 0,1 mm 2 m/S 643 mmHg 68%
    08:00 +17°C° 0,1 mm 2 m/S 644 mmHg 56%
    09:00 +20°C° 0,1 mm 2 m/S 644 mmHg 45%
    10:00 +21°C° 0,1 mm 2 m/S 644 mmHg 42%
    11:00 +22°C° 0,1 mm 3 m/S 644 mmHg 38%
    12:00 +24°C° 0,1 mm 3 m/S 644 mmHg 35%
    13:00 +24°C° 0,1 mm 3 m/S 644 mmHg 35%
    14:00 +24°C° 0,1 mm 3 m/S 643 mmHg 35%
    15:00 +24°C° 0,1 mm 3 m/S 643 mmHg 35%
    16:00 +21°C° 0,3 mm 3 m/S 643 mmHg 43%
    17:00 +20°C° 0,3 mm 3 m/S 642 mmHg 50%
    18:00 +18°C° 0,3 mm 2 m/S 642 mmHg 57%
    19:00 +17°C° 0,1 mm 3 m/S 642 mmHg 63%
    20:00 +16°C° 0,1 mm 3 m/S 643 mmHg 68%
    21:00 +16°C° 0,1 mm 3 m/S 643 mmHg 73%
    22:00 +14°C° 0,1 mm 3 m/S 643 mmHg 75%
    23:00 +15°C° 0,1 mm 2 m/S 642 mmHg 77%

    28 September, Donnerstag

    Zeit Temperatur Niederschläge Wind Luftdruck Luftfeuchtigkeit
    00:00 +14°C° 0,1 mm 2 m/S 642 mmHg 79%
    01:00 +14°C° 0,1 mm 2 m/S 642 mmHg 80%
    02:00 +13°C° 0,1 mm 2 m/S 642 mmHg 81%
    03:00 +13°C° 0,1 mm 2 m/S 642 mmHg 82%
    04:00 +13°C° 0,1 mm 2 m/S 642 mmHg 82%
    05:00 +13°C° 0,1 mm 2 m/S 642 mmHg 82%
    06:00 +12°C° 0,1 mm 2 m/S 642 mmHg 82%
    07:00 +14°C° 0 mm 2 m/S 643 mmHg 74%
    08:00 +16°C° 0 mm 2 m/S 644 mmHg 65%
    09:00 +17°C° 0 mm 2 m/S 644 mmHg 57%
    10:00 +18°C° 0 mm 2 m/S 644 mmHg 53%
    11:00 +19°C° 0 mm 2 m/S 644 mmHg 49%
    12:00 +20°C° 0 mm 2 m/S 645 mmHg 45%
    13:00 +20°C° 0,2 mm 2 m/S 644 mmHg 45%
    14:00 +21°C° 0,2 mm 2 m/S 644 mmHg 45%
    15:00 +21°C° 0,2 mm 2 m/S 644 mmHg 45%
    16:00 +19°C° 0,2 mm 2 m/S 644 mmHg 52%
    17:00 +18°C° 0,2 mm 2 m/S 643 mmHg 59%
    18:00 +16°C° 0,2 mm 3 m/S 643 mmHg 66%
    19:00 +16°C° 0,1 mm 3 m/S 643 mmHg 69%
    20:00 +14°C° 0,1 mm 3 m/S 643 mmHg 73%
    21:00 +13°C° 0,1 mm 3 m/S 644 mmHg 76%
    22:00 +13°C° 0,1 mm 3 m/S 644 mmHg 76%
    23:00 +14°C° 0,1 mm 2 m/S 644 mmHg 77%
    Mehr zeigen